Regional Weather Roundup
Issued by NWS

Home | Current Version | Previous Version | Text Only | Print | Product List | Glossary On
Versions: 1 2 3 4 5 6 7 8 9 10 11 12 13 14 15 16 17 18 19 20 21 22 23 24 25 26 27 28 29 30 31 32 33 34 35 36 37 38 39 40 41 42 43 44 45 46 47 48 49 50
000
ASUS45 KTFX 311719
RWRMT
MONTANA HOURLY WEATHER ROUNDUP
NATIONAL WEATHER SERVICE GREAT FALLS MT
1119 AM MDT FRI OCT 31 2014

NOTE: "FAIR" INDICATES FEW OR NO CLOUDS BELOW 12000 FEET WITH NO
SIGNIFICANT WEATHER AND/OR OBSTRUCTIONS TO VISIBILITY.

* THESE STATIONS ARE NOT UNDER NWS QUALITY CONTROL. THEY DO NOT
   REPORT WEATHER SUCH AS PRECIPITATION OR FOG.

MTZ001>007-043-311800-
WEST OF THE DIVIDE
CITY           SKY/WX    TMP DP  RH WIND       PRES   REMARKS
KALISPELL      FOG       39  39 100 CALM      29.79F VSB 3
MISSOULA       FOG       37  37 100 SW3       29.84F VSB 1
BUTTE          CLOUDY    41  32  70 CALM      29.92S
MULLAN PASS    PTSUNNY   48  36  63 VRB7      29.81S
* DEER LODGE   CLOUDY    55  30  39 S9G17      N/A
* ESSEX        N/A       42  36  79 SE9G14     N/A
* HAMILTON APT PTSUNNY   45  39  80 E2         N/A
* LIBBY APT    PTSUNNY   43  39  86 N/A        N/A
* LINCOLN      N/A       35  32  89 S2         N/A
* LOOKOUT PASS N/A       39  39 100 SE6        N/A   WCI  35
* POLSON       N/A       42  42 100 SE1        N/A
* RONAN APT    CLOUDY    43  41  93 N/A        N/A
* SEELEY LAKE  N/A       38  37  96 N/A        N/A
* THOMP F APT  CLOUDY    53  25  34 E6G12      N/A
* YAAK HILL    N/A       44  41  89 S3         N/A
$$

MTZ008-052>055-311800-
SOUTHWEST MONTANA
CITY           SKY/WX    TMP DP  RH WIND       PRES   REMARKS
BOZEMAN        PTSUNNY   41  36  82 CALM      29.89F
DILLON         PTSUNNY   43  34  71 CALM      29.93R
W YELLOWSTONE  SUNNY     39  30  70 CALM      30.05F
* ENNIS APT    PTSUNNY   63  25  24 SE22       N/A
* THREE FORKS  PTSUNNY   36  19  50 N/A        N/A
* BOULDER HILL N/A       40  26  57 S12        N/A   WCI  33
* MONIDA PASS  N/A       52  26  36 S17G22     N/A
* RAYNOLDS PAS N/A       50  35  57 S16G21     N/A
* WHITEHALL    N/A       39  32  76 S2         N/A
* WISE RIVER   N/A       31  29  92 N2         N/A
$$

MTZ009>010-012-014-046-048-049-054-311800-
EAST SLOPES AND CENTRAL MONTANA
CITY           SKY/WX    TMP DP  RH WIND       PRES   REMARKS
CUT BANK       CLOUDY    36  34  92 CALM      29.79F
GREAT FALLS    PTSUNNY   63  30  29 S21       29.77F
HELENA         PTCLDY    39  34  82 CALM      29.88F
MALMSTROM AFB  PTSUNNY   43  36  76 NE2       29.80F
* DEARBORN     N/A       55  34  45 S6G11      N/A
* EAST GLACIER N/A       48  33  56 NW4        N/A
* MONARCH      N/A       59  21  23 S17G24     N/A
* SAINT MARY   N/A       40  36  86 S2         N/A
* SWEET GRASS  N/A       37  32  82 S24G30     N/A   WCI  26
* WHITE SULPH  N/A       46  33  61 E6G12      N/A
$$

MTZ011-013-016-021-035-040-045-047-050-051-311800-
NORTH CENTRAL MONTANA
CITY           SKY/WX    TMP DP  RH WIND       PRES   REMARKS
HAVRE          CLOUDY    37  32  82 NE6       29.83F WCI  32
LEWISTOWN      CLOUDY    57  37  47 N6        29.85F
* N BAR RANCH  SUNNY     57  27  32 SW18G28   29.89F
* FORT BENTON  CLOUDY    45  34  65 E8        29.81F
* MALTA APT    PTSUNNY   45  36  71 E8         N/A
* CHESTER      N/A       41  32  70 SE6G12     N/A
* DENTON       N/A       56  32  40 S20G29     N/A
* GEYSER       N/A       55  33  43 NE2        N/A
* JUDITH GAP   N/A       42  34  73 S7         N/A
* LOMA         N/A       41  33  73 NE10G15    N/A
$$

MTZ017>020-022>027-061-062-311800-
NORTHEAST MONTANA
CITY           SKY/WX    TMP DP  RH WIND       PRES   REMARKS
GLASGOW        PTCLDY    43  32  65 SE26G33   29.99F
GLENDIVE       PTCLDY    43  30  60 S22       30.12F
JORDAN         PTSUNNY   43  34  71 SE14      29.97F
SIDNEY         PTCLDY    43  30  60 SE21      30.15F
WOLF POINT     PTCLDY    43  32  65 SE10G20   30.08F
* BEAVER HILL  N/A       37  29  73 SE29G42    N/A   WCI  25
* CIRCLE       N/A       44  35  71 SE7G20     N/A
* LINDSAY DVD  N/A       38  30  73 SE29G35    N/A   WCI  26
* NAVAJO       N/A       34  28  79 SE22G28    N/A   WCI  22
* PLENTYWOOD A N/A       34  27  76 SE22       N/A   WCI  22
* POPLAR APT   N/A       41  30  65 N/A        N/A
* SCOBEY APT   PTCLDY    37  27  67 SE24G38    N/A   WCI  26
$$

MTZ028>042-056>058-311800-
SOUTHCENTRAL AND SOUTHEAST MONTANA
CITY           SKY/WX    TMP DP  RH WIND       PRES   REMARKS
BAKER          CLOUDY    36  30  79 SE29G40   30.14F WCI  23
BILLINGS       PTCLDY    45  30  56 CALM      29.95F
LIVINGSTON     PTCLDY    39  28  65 S6        29.93F WCI  35
MILES CITY     PTCLDY    45  32  60 SE24G31   30.03F
* FORSYTH APT  PTSUNNY   48  32  54 SE14G21    N/A
* LAUREL APT   PTCLDY    45  28  51 N/A        N/A
* ROUNDUP APT  PTSUNNY   39  30  70 S5         N/A   WCI  35
* ALZADA       N/A       40  31  70 E9G15      N/A   WCI  34
* HYSHAM       N/A       48  31  52 S8         N/A
* LAME DEER    N/A       41  30  65 SE17G29    N/A
* REED POINT   N/A       38  31  76 NW1        N/A
* ROSCOE HILL  N/A       47  29  50 SE7        N/A
$$

REGIONAL REPORTS...DAKOTAS
CITY           SKY/WX    TMP DP  RH WIND       PRES   REMARKS
WILLISTON      PTSUNNY   36  27  70 SE16G25   30.21F WCI  26
DICKINSON      PTSUNNY   32  21  64 S26G32    30.24F WCI  18
BEACH          N/A       36  32  85 SE35G41   30.14F WCI  22
CROSBY         SUNNY     32  27  82 S24G31    30.22F WCI  19
TIOGA          PTCLDY    28  28 100 S21G30    30.27F WCI  14
BISMARCK       PTCLDY    30  21  69 S18       30.47F WCI  18
GRAND FORKS    SUNNY     32  21  64 SE10      30.57F WCI  24
FARGO          SUNNY     32  21  64 SE7       30.59F WCI  25
BUFFALO SD     PTCLDY    34  28  79 SE21G33   30.15F WCI  22
RAPID CITY     CLOUDY    34  28  79 S24G30    30.30F WCI  22
$$

REGIONAL REPORTS...WYOMING/IDAHO/WASHINGTON
CITY           SKY/WX    TMP DP  RH WIND       PRES   REMARKS
GILLETTE       CLOUDY    37  28  70 S29G38    30.09F WCI  25
SHERIDAN       PTSUNNY   43  30  60 NW7       29.99F
CODY           CLOUDY    46  34  63 CALM      29.99F
YELLOWSTONE LA SUNNY     46  30  54 CALM      30.12F
SALMON         SUNNY     45  37  74 N3        29.89F
MULLAN PASS    PTSUNNY   48  36  63 VRB7      29.81S
SAND POINT     PTSUNNY   46  45  96 CALM      29.78R
SPOKANE        FOG       46  46 100 S5        29.75S VSB M1/4
$$

REGIONAL REPORTS...ALBERTA
CITY           SKY/WX    TMP DP  RH WIND       PRES   REMARKS
CALGARY        PTSUNNY   48  36  63 S6        29.60F
LETHBRIDGE     PTSUNNY   50  36  59 SW7G22    29.69S
MEDICINE HAT   PTSUNNY   55  34  45 S15G23    29.70F
EDMONTON       CLOUDY    39  34  82 SE9       29.59S WCI  33
WATERTON GATE  N/A       59  34  39 S8         N/A
CARDSTON       N/A       54  37  53 S7         N/A
MILK RIVER     N/A       41  32  70 S12        N/A
$$

REGIONAL REPORTS...SASKATCHEWAN
CITY           SKY/WX    TMP DP  RH WIND       PRES   REMARKS
SWIFT CURRENT  SUNNY     41  34  76 S38G45    29.79F
MOOSE JAW      PTSUNNY   37  30  76 SE12G18   30.02F WCI  29
REGINA         CLOUDY    28  25  89 SE23G36   30.09F WCI  14
VAL MARIE      N/A       41  32  70 S22G28     N/A
ASSINIBOIA     N/A       39  30  70 SE20G30    N/A   WCI  29

$$




USA.gov is the U.S. government's official web portal to all federal, state and local government web resources and services.